| time (UTC) | temp F | wind direction | speed MPH | gust MPH | rain 1hr in | rain 24hr in | rain mn in | humidity % | barometer mb |
| 20260503225105 | 81 | 264 | 0.0 | 3.0 | 0.00 | 0.00 | 0.00 | 31 | 1007.3 |
| 20260503224542 | 81 | 276 | 0.0 | 3.0 | 0.00 | 0.00 | 0.00 | 31 | 1007.4 |
| 20260503224017 | 81 | 299 | 1.0 | 5.0 | 0.00 | 0.00 | 0.00 | 30 | 1007.5 |
| 20260503223557 | 82 | 273 | 1.0 | 5.0 | 0.00 | 0.00 | 0.00 | 31 | 1007.5 |
| 20260503223035 | 81 | 293 | 0.0 | 3.0 | 0.00 | 0.00 | 0.00 | 33 | 1007.6 |
| 20260503222510 | 81 | 279 | 0.0 | 3.0 | 0.00 | 0.00 | 0.00 | 34 | 1007.6 |
| 20260503222051 | 81 | 277 | 0.0 | 3.0 | 0.00 | 0.00 | 0.00 | 33 | 1007.7 |
| 20260503221525 | 81 | 301 | 0.0 | 3.0 | 0.00 | 0.00 | 0.00 | 34 | 1007.7 |
| 20260503221003 | 81 | 315 | 0.0 | 4.0 | 0.00 | 0.00 | 0.00 | 35 | 1007.8 |
| 20260503220542 | 80 | 259 | 0.0 | 4.0 | 0.00 | 0.00 | 0.00 | 38 | 1007.8 |
| 20260503220019 | 80 | 328 | 0.0 | 3.0 | 0.00 | 0.00 | 0.00 | 38 | 1007.8 |
| 20260503215559 | 80 | 328 | 0.0 | 3.0 | 0.00 | 0.00 | 0.00 | 38 | 1007.9 |
| 20260503215034 | 81 | 272 | 0.0 | 7.0 | 0.00 | 0.00 | 0.00 | 37 | 1008.0 |
| 20260503214513 | 81 | 297 | 1.0 | 7.0 | 0.00 | 0.00 | 0.00 | 36 | 1008.0 |
| 20260503214055 | 81 | 305 | 0.0 | 1.0 | 0.00 | 0.00 | 0.00 | 39 | 1008.1 |
| 20260503213528 | 81 | 305 | 0.0 | 2.0 | 0.00 | 0.00 | 0.00 | 39 | 1008.1 |
| 20260503213004 | 80 | 308 | 0.0 | 3.0 | 0.00 | 0.00 | 0.00 | 40 | 1008.2 |
| 20260503212546 | 80 | 316 | 0.0 | 3.0 | 0.00 | 0.00 | 0.00 | 39 | 1008.2 |
| 20260503212022 | 80 | 264 | 0.0 | 5.0 | 0.00 | 0.00 | 0.00 | 38 | 1008.3 |
| 20260503211622 | 80 | 260 | 0.0 | 5.0 | 0.00 | 0.00 | 0.00 | 39 | 1008.5 |
| 20260503211040 | 80 | 314 | 0.0 | 2.0 | 0.00 | 0.00 | 0.00 | 38 | 1008.5 |
| 20260503210513 | 80 | 274 | 0.0 | 2.0 | 0.00 | 0.00 | 0.00 | 39 | 1008.6 |
| 20260503210054 | 80 | 269 | 0.0 | 3.0 | 0.00 | 0.00 | 0.00 | 39 | 1008.7 |
| 20260503205529 | 79 | 309 | 0.0 | 3.0 | 0.00 | 0.00 | 0.00 | 39 | 1008.8 |
| 20260503205005 | 79 | 156 | 0.0 | 2.0 | 0.00 | 0.00 | 0.00 | 41 | 1008.9 |
| 20260503204600 | 79 | 185 | 0.0 | 6.0 | 0.00 | 0.00 | 0.00 | 41 | 1009.0 |
| 20260503204020 | 79 | 262 | 0.0 | 6.0 | 0.00 | 0.00 | 0.00 | 41 | 1009.1 |
| 20260503203601 | 79 | 264 | 1.0 | 3.0 | 0.00 | 0.00 | 0.00 | 39 | 1009.2 |
| 20260503203040 | 79 | 301 | 0.0 | 4.0 | 0.00 | 0.00 | 0.00 | 43 | 1009.3 |
| 20260503202514 | 79 | 282 | 0.0 | 4.0 | 0.00 | 0.00 | 0.00 | 40 | 1009.4 |
| 20260503202056 | 79 | 245 | 0.0 | 3.0 | 0.00 | 0.00 | 0.00 | 42 | 1009.3 |
| 20260503201530 | 78 | 316 | 1.0 | 5.0 | 0.00 | 0.00 | 0.00 | 40 | 1009.4 |
| 20260503201005 | 78 | 295 | 1.0 | 4.0 | 0.00 | 0.00 | 0.00 | 39 | 1009.5 |
| 20260503200546 | 78 | 311 | 1.0 | 4.0 | 0.00 | 0.00 | 0.00 | 39 | 1009.7 |
| 20260503200023 | 78 | 295 | 1.0 | 3.0 | 0.00 | 0.00 | 0.00 | 40 | 1009.7 |
| 20260503195604 | 78 | 182 | 0.0 | 2.0 | 0.00 | 0.00 | 0.00 | 41 | 1009.8 |
| 20260503195039 | 78 | 274 | 0.0 | 3.0 | 0.00 | 0.00 | 0.00 | 41 | 1009.8 |
| 20260503194521 | 78 | 309 | 1.0 | 3.0 | 0.00 | 0.00 | 0.00 | 40 | 1009.9 |
| 20260503194058 | 78 | 258 | 0.0 | 3.0 | 0.00 | 0.00 | 0.00 | 42 | 1010.0 |
| 20260503193532 | 77 | 288 | 0.0 | 3.0 | 0.00 | 0.00 | 0.00 | 40 | 1010.1 |
| 20260503193008 | 77 | 168 | 0.0 | 6.0 | 0.00 | 0.00 | 0.00 | 43 | 1010.1 |
| 20260503192549 | 77 | 308 | 0.0 | 6.0 | 0.00 | 0.00 | 0.00 | 42 | 1010.2 |
| 20260503192023 | 77 | 322 | 1.0 | 3.0 | 0.00 | 0.00 | 0.00 | 40 | 1010.3 |
| 20260503191607 | 77 | 301 | 0.0 | 2.0 | 0.00 | 0.00 | 0.00 | 41 | 1010.3 |
| 20260503191038 | 76 | 285 | 0.0 | 2.0 | 0.00 | 0.00 | 0.00 | 42 | 1010.4 |
| 20260503190516 | 76 | 245 | 0.0 | 2.0 | 0.00 | 0.00 | 0.00 | 42 | 1010.4 |
| 20260503190056 | 76 | 295 | 0.0 | 3.0 | 0.00 | 0.00 | 0.00 | 41 | 1010.5 |
| 20260503185531 | 76 | 297 | 1.0 | 3.0 | 0.00 | 0.00 | 0.00 | 41 | 1010.6 |
| 20260503185005 | 76 | 265 | 0.0 | 3.0 | 0.00 | 0.00 | 0.00 | 41 | 1010.6 |
| 20260503184604 | 76 | 264 | 1.0 | 4.0 | 0.00 | 0.00 | 0.00 | 42 | 1010.7 |
| 20260503184022 | 76 | 283 | 0.0 | 4.0 | 0.00 | 0.00 | 0.00 | 44 | 1010.8 |
| 20260503183603 | 76 | 331 | 1.0 | 4.0 | 0.00 | 0.00 | 0.00 | 41 | 1010.8 |
| 20260503183045 | 76 | 283 | 0.0 | 3.0 | 0.00 | 0.00 | 0.00 | 42 | 1010.8 |
| 20260503182515 | 75 | 269 | 0.0 | 4.0 | 0.00 | 0.00 | 0.00 | 41 | 1010.8 |
| 20260503182056 | 75 | 254 | 0.0 | 4.0 | 0.00 | 0.00 | 0.00 | 45 | 1010.9 |
| 20260503181533 | 75 | 333 | 0.0 | 7.0 | 0.00 | 0.00 | 0.00 | 45 | 1011.0 |
| 20260503181008 | 75 | 327 | 2.0 | 7.0 | 0.00 | 0.00 | 0.00 | 43 | 1011.1 |
| 20260503180549 | 75 | 134 | 0.0 | 4.0 | 0.00 | 0.00 | 0.00 | 46 | 1011.2 |
| 20260503180030 | 74 | 306 | 0.0 | 4.0 | 0.00 | 0.00 | 0.00 | 45 | 1011.2 |
| 20260503175606 | 74 | 302 | 1.0 | 5.0 | 0.00 | 0.00 | 0.00 | 45 | 1011.3 |
| 20260503175040 | 74 | 248 | 2.0 | 5.0 | 0.00 | 0.00 | 0.00 | 44 | 1011.4 |
| 20260503174522 | 74 | 238 | 0.0 | 2.0 | 0.00 | 0.00 | 0.00 | 47 | 1011.4 |
| 20260503174059 | 73 | 333 | 0.0 | 3.0 | 0.00 | 0.00 | 0.00 | 48 | 1011.5 |
| 20260503173535 | 73 | 221 | 0.0 | 4.0 | 0.00 | 0.00 | 0.00 | 49 | 1011.8 |
| 20260503173013 | 73 | 323 | 0.0 | 4.0 | 0.00 | 0.00 | 0.00 | 47 | 1011.8 |
| 20260503172550 | 72 | 172 | 0.0 | 3.0 | 0.00 | 0.00 | 0.00 | 48 | 1011.9 |
| 20260503172028 | 72 | 148 | 0.0 | 6.0 | 0.00 | 0.00 | 0.00 | 51 | 1012.0 |
| 20260503171508 | 72 | 152 | 0.0 | 6.0 | 0.00 | 0.00 | 0.00 | 50 | 1012.0 |
| 20260503171044 | 71 | 195 | 1.0 | 5.0 | 0.00 | 0.00 | 0.00 | 51 | 1012.1 |
| 20260503170520 | 71 | 252 | 1.0 | 4.0 | 0.00 | 0.00 | 0.00 | 49 | 1012.4 |
| 20260503150535 | 64 | 154 | 1.0 | 6.0 | 0.00 | 0.00 | 0.00 | 54 | 1013.6 |
| 20260503131057 | 53 | 169 | 0.0 | 7.0 | 0.00 | 0.00 | 0.00 | 62 | 1014.5 |
| 20260503130533 | 53 | 146 | 0.0 | 4.0 | 0.00 | 0.00 | 0.00 | 63 | 1014.6 |
| 20260503110537 | 48 | 141 | 0.0 | 3.0 | 0.00 | 0.00 | 0.00 | 69 | 1014.8 |
| 20260503081604 | 48 | 157 | 1.0 | 3.0 | 0.00 | 0.00 | 0.00 | 69 | 1016.1 |
| 20260503081038 | 48 | 160 | 0.0 | 3.0 | 0.00 | 0.00 | 0.00 | 69 | 1016.1 |
| 20260503080516 | 48 | 150 | 0.0 | 2.0 | 0.00 | 0.00 | 0.00 | 69 | 1016.2 |
| 20260503072519 | 48 | 143 | 0.0 | 2.0 | 0.00 | 0.00 | 0.00 | 68 | 1016.6 |
| 20260503072057 | 49 | 148 | 0.0 | 2.0 | 0.00 | 0.00 | 0.00 | 68 | 1016.6 |
| 20260503071556 | 49 | 120 | 0.0 | 1.0 | 0.00 | 0.00 | 0.00 | 68 | 1016.6 |
| 20260503071008 | 49 | 155 | 0.0 | 2.0 | 0.00 | 0.00 | 0.00 | 67 | 1016.6 |
| 20260503070549 | 49 | 155 | 0.0 | 2.0 | 0.00 | 0.00 | 0.00 | 67 | 1016.7 |
| 20260503060126 | 49 | 146 | 0.0 | 1.0 | 0.00 | 0.00 | 0.00 | 68 | 1017.1 |
| 20260503055012 | 49 | 147 | 0.0 | 1.0 | 0.00 | 0.00 | 0.00 | 69 | 1017.2 |
| 20260503054559 | 49 | 147 | 0.0 | 1.0 | 0.00 | 0.00 | 0.00 | 69 | 1017.3 |
| 20260503054028 | 49 | 306 | 0.0 | 1.0 | 0.00 | 0.00 | 0.00 | 69 | 1017.4 |
| 20260503053504 | 49 | 312 | 0.0 | 0.0 | 0.00 | 0.00 | 0.00 | 69 | 1017.5 |
| 20260503053046 | 49 | 312 | 0.0 | 0.0 | 0.00 | 0.00 | 0.00 | 70 | 1017.5 |
| 20260503052522 | 49 | 312 | 0.0 | 0.0 | 0.00 | 0.00 | 0.00 | 70 | 1017.5 |
| 20260503052102 | 49 | 312 | 0.0 | 0.0 | 0.00 | 0.00 | 0.00 | 70 | 1017.6 |
| 20260503051546 | 49 | 312 | 0.0 | 0.0 | 0.00 | 0.00 | 0.00 | 69 | 1017.7 |
| 20260503051017 | 49 | 312 | 0.0 | 0.0 | 0.00 | 0.00 | 0.00 | 69 | 1017.7 |
| 20260503050554 | 49 | 312 | 0.0 | 0.0 | 0.00 | 0.00 | 0.00 | 70 | 1017.8 |
| 20260503050032 | 49 | 312 | 0.0 | 0.0 | 0.00 | 0.00 | 0.00 | 69 | 1017.8 |
| 20260503045508 | 49 | 312 | 0.0 | 0.0 | 0.00 | 0.00 | 0.00 | 69 | 1017.9 |
| 20260503045049 | 49 | 312 | 0.0 | 0.0 | 0.00 | 0.00 | 0.00 | 69 | 1017.8 |
| 20260503044525 | 49 | 312 | 0.0 | 0.0 | 0.00 | 0.00 | 0.00 | 69 | 1017.9 |
| 20260503044106 | 49 | 312 | 0.0 | 0.0 | 0.00 | 0.00 | 0.00 | 69 | 1018.0 |
| 20260503043541 | 49 | 312 | 0.0 | 0.0 | 0.00 | 0.00 | 0.00 | 68 | 1017.9 |
| 20260503043022 | 49 | 312 | 0.0 | 0.0 | 0.00 | 0.00 | 0.00 | 68 | 1018.0 |
| 20260503042558 | 49 | 312 | 0.0 | 0.0 | 0.00 | 0.00 | 0.00 | 68 | 1018.1 |
| 20260503042034 | 49 | 312 | 0.0 | 0.0 | 0.00 | 0.00 | 0.00 | 67 | 1018.1 |
| 20260503041514 | 49 | 312 | 0.0 | 0.0 | 0.00 | 0.00 | 0.00 | 66 | 1018.2 |
| 20260503041052 | 50 | 312 | 0.0 | 0.0 | 0.00 | 0.00 | 0.00 | 65 | 1018.2 |
| 20260503040530 | 50 | 312 | 0.0 | 0.0 | 0.00 | 0.00 | 0.00 | 64 | 1018.2 |
| 20260503040002 | 50 | 312 | 0.0 | 0.0 | 0.00 | 0.00 | 0.00 | 64 | 1018.3 |
| 20260503035542 | 50 | 312 | 0.0 | 0.0 | 0.00 | 0.00 | 0.00 | 64 | 1018.3 |
| 20260503035018 | 50 | 312 | 0.0 | 0.0 | 0.00 | 0.00 | 0.00 | 63 | 1018.2 |
| 20260503034600 | 50 | 312 | 0.0 | 0.0 | 0.00 | 0.00 | 0.00 | 62 | 1018.3 |
| 20260503034036 | 50 | 312 | 0.0 | 0.0 | 0.00 | 0.00 | 0.00 | 61 | 1018.4 |
| 20260503033512 | 50 | 312 | 0.0 | 0.0 | 0.00 | 0.00 | 0.00 | 60 | 1018.5 |
| 20260503033059 | 50 | 312 | 0.0 | 0.0 | 0.00 | 0.00 | 0.00 | 59 | 1018.5 |
| 20260503032528 | 51 | 312 | 0.0 | 0.0 | 0.00 | 0.00 | 0.00 | 59 | 1018.5 |
| 20260503032005 | 51 | 312 | 0.0 | 0.0 | 0.00 | 0.00 | 0.00 | 59 | 1018.5 |
| 20260503031546 | 51 | 312 | 0.0 | 0.0 | 0.00 | 0.00 | 0.00 | 59 | 1018.5 |
| 20260503031023 | 51 | 312 | 0.0 | 0.0 | 0.00 | 0.00 | 0.00 | 57 | 1018.5 |
| 20260503030605 | 51 | 312 | 0.0 | 0.0 | 0.00 | 0.00 | 0.00 | 57 | 1018.5 |
| 20260503030040 | 51 | 312 | 0.0 | 0.0 | 0.00 | 0.00 | 0.00 | 55 | 1018.5 |
| 20260503025516 | 52 | 312 | 0.0 | 0.0 | 0.00 | 0.00 | 0.00 | 55 | 1018.5 |
| 20260503025059 | 52 | 312 | 0.0 | 0.0 | 0.00 | 0.00 | 0.00 | 54 | 1018.6 |
| 20260503024548 | 52 | 312 | 0.0 | 0.0 | 0.00 | 0.00 | 0.00 | 54 | 1018.6 |
| 20260503024019 | 52 | 312 | 0.0 | 0.0 | 0.00 | 0.00 | 0.00 | 53 | 1018.6 |
| 20260503023602 | 52 | 312 | 0.0 | 0.0 | 0.00 | 0.00 | 0.00 | 53 | 1018.6 |
| 20260503023034 | 53 | 312 | 0.0 | 0.0 | 0.00 | 0.00 | 0.00 | 52 | 1018.5 |
| 20260503022510 | 53 | 312 | 0.0 | 0.0 | 0.00 | 0.00 | 0.00 | 52 | 1018.5 |
| 20260503022055 | 53 | 312 | 0.0 | 0.0 | 0.00 | 0.00 | 0.00 | 52 | 1018.5 |
| 20260503021532 | 53 | 312 | 0.0 | 0.0 | 0.00 | 0.00 | 0.00 | 51 | 1018.5 |
| 20260503021004 | 54 | 312 | 0.0 | 0.0 | 0.00 | 0.00 | 0.00 | 51 | 1018.5 |
| 20260503020544 | 54 | 312 | 0.0 | 0.0 | 0.00 | 0.00 | 0.00 | 49 | 1018.4 |
| 20260503020020 | 54 | 312 | 0.0 | 0.0 | 0.00 | 0.00 | 0.00 | 49 | 1018.3 |
| 20260503015601 | 54 | 312 | 0.0 | 0.0 | 0.00 | 0.00 | 0.00 | 49 | 1018.3 |
| 20260503015041 | 55 | 312 | 0.0 | 0.0 | 0.00 | 0.00 | 0.00 | 47 | 1018.2 |
| 20260503014514 | 55 | 312 | 0.0 | 0.0 | 0.00 | 0.00 | 0.00 | 47 | 1018.2 |
| 20260503014057 | 55 | 312 | 0.0 | 0.0 | 0.00 | 0.00 | 0.00 | 48 | 1018.2 |
| 20260503013531 | 56 | 312 | 0.0 | 0.0 | 0.00 | 0.00 | 0.00 | 44 | 1018.2 |
| 20260503013015 | 56 | 312 | 0.0 | 0.0 | 0.00 | 0.00 | 0.00 | 44 | 1018.2 |
| 20260503012548 | 57 | 312 | 0.0 | 0.0 | 0.00 | 0.00 | 0.00 | 43 | 1018.2 |
| 20260503012026 | 57 | 312 | 0.0 | 0.0 | 0.00 | 0.00 | 0.00 | 43 | 1018.1 |
| 20260503011633 | 57 | 312 | 0.0 | 0.0 | 0.00 | 0.00 | 0.00 | 43 | 1018.1 |
| 20260503011040 | 58 | 312 | 0.0 | 0.0 | 0.00 | 0.00 | 0.00 | 42 | 1018.1 |
| 20260503010514 | 58 | 312 | 0.0 | 0.0 | 0.00 | 0.00 | 0.00 | 41 | 1018.2 |
| 20260503010056 | 58 | 312 | 0.0 | 0.0 | 0.00 | 0.00 | 0.00 | 40 | 1018.1 |
| 20260503005530 | 59 | 312 | 0.0 | 0.0 | 0.00 | 0.00 | 0.00 | 40 | 1018.1 |
| 20260503005007 | 59 | 312 | 0.0 | 0.0 | 0.00 | 0.00 | 0.00 | 40 | 1018.2 |
| 20260503004547 | 59 | 312 | 0.0 | 0.0 | 0.00 | 0.00 | 0.00 | 40 | 1018.2 |
| 20260503004023 | 59 | 312 | 0.0 | 0.0 | 0.00 | 0.00 | 0.00 | 40 | 1018.2 |
| 20260503003604 | 60 | 312 | 0.0 | 0.0 | 0.00 | 0.00 | 0.00 | 39 | 1018.3 |
| 20260503003041 | 60 | 312 | 0.0 | 0.0 | 0.00 | 0.00 | 0.00 | 39 | 1018.2 |
| 20260503002514 | 60 | 312 | 0.0 | 0.0 | 0.00 | 0.00 | 0.00 | 37 | 1018.2 |
| 20260503002055 | 60 | 312 | 0.0 | 0.0 | 0.00 | 0.00 | 0.00 | 38 | 1018.3 |
| 20260503001532 | 61 | 312 | 0.0 | 0.0 | 0.00 | 0.00 | 0.00 | 36 | 1018.1 |
| 20260503001008 | 61 | 312 | 0.0 | 0.0 | 0.00 | 0.00 | 0.00 | 36 | 1018.2 |
| 20260503000549 | 61 | 312 | 0.0 | 0.0 | 0.00 | 0.00 | 0.00 | 36 | 1018.2 |
| 20260503000024 | 61 | 312 | 0.0 | 0.0 | 0.00 | 0.00 | 0.00 | 35 | 1018.2 |
| 20260502235501 | 61 | 312 | 0.0 | 1.0 | 0.00 | 0.00 | 0.00 | 35 | 1018.2 |
| 20260502235041 | 61 | 312 | 0.0 | 1.0 | 0.00 | 0.00 | 0.00 | 34 | 1018.3 |
| 20260502234520 | 61 | 46 | 0.0 | 1.0 | 0.00 | 0.00 | 0.00 | 34 | 1018.3 |
| 20260502234059 | 61 | 321 | 0.0 | 1.0 | 0.00 | 0.00 | 0.00 | 33 | 1018.3 |
| 20260502233533 | 61 | 321 | 0.0 | 0.0 | 0.00 | 0.00 | 0.00 | 35 | 1018.3 |
| 20260502233010 | 62 | 321 | 0.0 | 2.0 | 0.00 | 0.00 | 0.00 | 35 | 1018.4 |
| 20260502232552 | 62 | 321 | 0.0 | 2.0 | 0.00 | 0.00 | 0.00 | 34 | 1018.4 |
| 20260502232030 | 61 | 186 | 0.0 | 0.0 | 0.00 | 0.00 | 0.00 | 34 | 1018.4 |
| 20260502231607 | 61 | 186 | 0.0 | 0.0 | 0.00 | 0.00 | 0.00 | 35 | 1018.4 |
| 20260502231055 | 62 | 186 | 0.0 | 0.0 | 0.00 | 0.00 | 0.00 | 34 | 1018.5 |
| 20260502230528 | 62 | 205 | 0.0 | 1.0 | 0.00 | 0.00 | 0.00 | 34 | 1018.5 |
| 20260502230007 | 62 | 205 | 0.0 | 1.0 | 0.00 | 0.00 | 0.00 | 33 | 1018.6 |
| 20260502225542 | 62 | 205 | 0.0 | 1.0 | 0.00 | 0.00 | 0.00 | 33 | 1018.6 |